Back to catalog

STARLINK-35031

AliveCommunicationsVLEO
NORAD 65404·PAYLOAD·🇺🇸 United States

Launched Aug 31, 2025 from Cape Canaveral Space Force Station

Loading…

Next Passes (next 24 hours)

TLE

FreshSource: CelesTrak SupGP

Epoch: Sep 14, 2026, 14:44 UTC

1 65404C 25192A   26257.61437500 -.00009382  00000+0 -27739-3 0  2577
2 65404  53.1588  81.2541 0001167 100.6168  93.9492 15.34372178    17

Track STARLINK-35031 in real time with AllMySat

Download on the App Store